Terminal Aerodrome Forecast
Issued by NWS Missoula, MT

Home | Current Version | Previous Version | Text Only | Print | Product List | Glossary On
Versions: 1 2 3 4 5 6 7 8 9 10 11 12 13 14 15 16 17 18
944
FTUS45 KMSO 300520
TAFBTM
TAF
KBTM 300520Z 3006/3106 33006KT P6SM -SHRA BKN080
     FM300900 32006KT P6SM BKN100
     FM301900 32012G20KT P6SM BKN120=

USA.gov is the U.S. government's official web portal to all federal, state and local government web resources and services.